Wind_Speed
18 18 17 16 16 16 16 16 15 15 14 12 12 13 14 14 14 14 14 14 15 15 16 16 17 17 17 17 17 17 17 16 16 15 15 14 14 14 14 14 14 14 13 13
19 18 18 18 17 16 16 16 15 14 13 12 13 13 14 14 14 14 14 14 15 15 15 15 15 16 16 17 17 17 17 17 17 16 15 15 15 14 14 14 14 14 14 14
19 19 19 19 17 17 16 16 16 15 13 14 14 14 14 14 13 13 14 15 15 15 15 15 14 15 16 16 17 17 17 17 17 17 16 16 16 15 15 14 14 14 14 14
19 19 20 17 16 16 16 16 15 14 14 14 15 14 14 14 14 14 14 15 15 15 15 15 15 15 16 16 17 17 18 18 18 17 17 17 16 15 15 15 14 14 14 14
20 20 19 17 16 16 16 15 15 14 14 14 15 15 14 14 14 14 14 15 16 15 16 16 16 16 17 17 18 18 18 18 18 18 18 17 16 16 15 15 15 15 14 15
21 20 19 17 16 16 16 15 14 14 14 15 15 15 13 13 14 14 14 14 15 16 17 17 16 16 17 17 18 18 18 18 18 18 18 18 17 17 16 16 16 16 16 16
21 20 19 17 16 15 15 13 14 14 14 14 14 13 12 13 13 14 14 14 14 15 16 16 16 17 17 17 17 17 18 18 18 17 17 17 17 17 17 17 17 17 17 17
22 21 19 17 16 16 15 14 14 14 14 14 13 13 13 13 13 13 14 14 14 14 15 15 16 16 17 17 17 17 18 18 17 16 16 16 17 17 17 17 17 17 17 17
22 21 19 19 17 16 15 15 15 15 15 14 14 14 14 14 13 13 13 13 13 14 14 15 15 15 16 17 17 17 18 18 18 17 17 17 17 17 17 17 17 17 17 17
22 20 19 19 18 17 16 16 16 16 15 15 14 14 14 14 13 13 13 13 13 13 13 14 14 15 15 15 16 17 17 17 18 18 18 18 17 17 17 17 17 17 17 17
22 20 20 19 19 18 17 17 17 17 16 16 15 14 14 14 14 14 14 14 14 13 14 14 14 15 15 15 16 17 17 17 17 17 17 18 18 18 18 18 18 17 17 18
23 22 20 19 19 19 19 18 18 17 17 16 16 16 15 15 15 15 16 16 16 15 15 15 16 15 15 15 16 16 17 17 17 17 17 18 18 19 19 19 19 19 18 19
24 23 21 21 21 21 20 20 19 18 17 17 16 16 17 17 16 16 17 17 17 17 17 17 17 17 16 16 17 17 17 17 17 18 18 18 19 19 20 20 20 20 20 20
25 24 23 22 22 21 21 20 20 20 19 19 18 17 17 18 17 17 17 17 17 17 17 17 17 17 16 17 17 17 18 18 18 18 19 19 19 20 20 20 21 22 22 22
26 25 24 24 23 23 22 22 21 21 21 20 19 19 19 19 18 18 18 18 18 18 18 18 18 18 18 18 18 18 19 19 19 19 20 20 20 21 21 22 22 23 23 24
28 27 26 25 25 24 24 23 23 23 22 21 20 20 20 19 19 19 19 19 18 18 18 19 19 20 20 19 19 19 19 20 20 20 20 21 21 22 23 23 23 24 24 24
28 28 27 26 26 26 26 26 25 25 24 23 22 21 21 21 20 20 20 20 20 20 20 20 20 20 20 21 21 21 21 21 21 21 21 22 23 23 24 24 24 24 24 24
28 28 27 26 26 26 26 26 26 25 25 25 24 23 23 22 22 21 21 20 20 20 20 20 20 20 20 21 21 21 21 22 22 22 22 22 23 23 24 25 25 25 25 24
28 28 28 27 27 27 26 26 27 26 26 26 26 25 24 23 23 22 21 21 21 21 21 21 21 21 21 21 22 22 22 22 23 23 23 23 24 23 24 24 25 25 25 26
29 29 29 29 28 28 27 27 28 27 26 27 27 26 25 24 23 23 23 22 22 22 21 21 22 22 23 22 22 22 23 23 23 23 23 24 24 24 24 25 25 25 26 26
29 30 29 29 29 28 28 28 27 27 27 27 26 26 25 24 24 24 24 23 23 23 22 22 22 22 23 24 24 24 24 24 24 24 24 24 24 25 25 25 26 26 26 27
29 30 29 29 28 28 28 28 27 27 27 26 26 26 26 25 25 25 25 25 25 24 24 23 23 23 23 23 24 24 24 24 24 24 24 24 25 25 26 26 27 26 27 27
30 29 29 29 28 28 28 28 28 28 27 27 27 27 27 26 26 26 25 25 26 25 25 25 24 24 23 23 24 24 25 25 25 25 25 25 26 26 26 27 27 27 27 28
30 29 29 29 29 29 29 29 29 29 28 28 28 28 27 27 26 26 26 25 25 25 25 24 25 25 25 25 25 25 26 25 25 25 25 26 26 26 27 27 27 28 28 29
31 30 29 29 29 29 30 30 29 29 29 28 28 28 27 27 26 26 25 25 25 25 25 25 25 25 25 25 26 26 26 26 26 26 25 25 26 27 27 27 28 28 29 30
31 30 30 30 30 30 29 29 29 28 28 28 27 27 27 27 27 27 26 26 25 26 26 26 26 26 26 27 27 27 27 27 27 26 26 27 27 27 28 29 29 30 30 31
29 30 30 30 30 30 30 29 29 29 28 28 28 27 27 27 27 27 27 26 26 26 27 27 27 28 28 28 28 28 27 27 28 28 28 28 28 28 29 30 30 31 31 32
Wind_Direction
241 243 243 243 244 246 248 247 249 248 245 242 240 242 244 244 243 241 240 242 243 242 242 244 243 243 242 244 244 243 242 240 238 238 240 241 243 243 243 244 246 249 252 256
242 244 245 245 245 246 247 246 247 244 240 239 238 238 242 243 244 242 241 242 241 241 242 241 240 243 243 241 242 241 239 238 238 238 240 241 242 244 245 246 247 250 254 257
245 245 247 245 244 245 246 245 246 244 241 241 243 240 241 241 241 242 243 243 240 240 241 237 238 242 242 241 240 239 238 238 239 240 241 242 243 243 244 248 250 253 256 257
245 245 247 244 242 244 244 242 242 242 243 244 246 243 241 240 241 242 244 242 242 240 238 239 242 243 240 240 240 239 238 237 237 240 242 244 242 241 243 248 251 253 256 257
241 244 247 244 241 243 243 241 241 240 241 244 245 243 239 239 243 243 242 242 242 242 240 241 244 244 241 241 241 241 238 238 239 240 243 243 242 243 245 248 252 253 255 257
240 243 245 243 241 242 242 241 238 238 241 244 244 243 240 240 242 245 244 242 241 241 239 241 244 243 243 241 240 239 237 238 239 241 241 240 241 242 245 248 252 256 255 257
240 242 243 241 241 241 241 240 239 239 241 243 244 241 238 239 242 244 244 243 242 243 243 244 243 243 244 242 239 237 234 235 238 240 241 240 241 242 246 249 253 257 257 258
239 240 242 241 240 240 240 239 240 240 241 244 245 243 242 243 244 246 245 243 243 245 245 247 246 246 243 243 240 234 233 236 238 239 241 241 242 243 245 248 252 256 258 259
239 241 243 239 239 239 238 238 240 240 242 245 247 246 246 246 248 249 249 246 247 247 247 247 246 245 243 242 237 233 236 237 239 242 243 243 246 246 248 252 254 258 259 262
237 238 237 236 237 236 235 236 237 239 242 245 246 246 246 247 248 249 250 252 252 252 251 249 247 245 243 242 240 238 240 240 241 243 244 245 248 250 252 254 256 260 259 261
237 237 236 235 235 234 233 235 236 237 239 243 245 247 247 247 247 248 250 251 252 254 251 249 249 245 243 243 243 241 242 241 242 244 245 247 250 252 254 256 257 258 259 261
236 235 234 233 233 232 233 234 235 237 239 242 245 246 247 248 249 249 251 252 252 253 252 249 248 247 245 244 245 246 247 244 244 247 251 252 252 253 254 255 256 257 259 262
236 233 232 230 231 233 234 236 237 237 239 241 246 248 246 249 250 252 253 253 252 252 252 250 247 246 245 247 248 248 249 249 250 251 254 256 256 257 257 257 258 260 262 264
234 232 230 230 231 233 234 236 238 238 239 241 245 248 249 248 250 252 253 253 253 252 250 248 247 246 246 247 248 249 249 251 253 255 256 257 256 257 257 258 260 263 264 266
233 233 230 231 233 234 236 237 238 239 240 241 243 247 249 250 252 253 253 255 255 253 251 249 249 248 249 249 249 251 253 254 256 259 260 258 256 258 259 260 263 264 266 268
233 232 231 231 233 235 237 237 238 239 240 241 243 246 248 250 251 252 252 255 255 253 251 251 250 250 249 251 251 252 254 256 257 260 261 259 258 258 260 261 263 265 268 270
233 232 231 232 234 235 237 239 240 241 241 241 243 245 248 249 250 250 252 254 254 253 251 251 252 252 251 251 253 255 256 257 259 261 261 261 260 260 261 262 265 268 270 273
233 232 232 233 234 237 239 240 240 241 242 242 243 246 247 250 251 250 251 252 253 253 253 251 251 251 252 253 255 256 257 258 259 260 261 263 263 262 263 264 267 269 270 272
233 232 233 235 236 238 240 241 241 241 242 242 243 245 246 248 249 249 250 251 252 253 253 253 252 252 253 255 256 258 258 258 259 261 262 263 264 264 266 268 269 269 270 273
234 233 234 236 238 239 240 241 239 239 241 241 241 243 244 245 247 248 249 251 252 253 254 255 255 253 254 255 257 258 259 260 262 263 264 266 266 266 268 269 270 271 274 275
234 235 236 237 237 238 238 238 237 238 239 239 239 240 241 244 246 248 249 251 252 253 255 256 257 257 256 256 257 259 261 262 263 265 268 269 269 269 270 271 272 274 275 277
234 235 235 236 236 236 236 236 236 237 237 237 237 238 241 244 246 249 250 250 251 252 254 255 256 258 259 259 259 261 263 264 265 267 269 271 272 273 273 273 274 276 278 279
234 234 234 234 235 234 235 235 236 237 238 239 239 240 242 244 247 250 251 252 253 253 254 255 256 258 260 261 262 262 264 265 267 268 270 271 272 273 274 275 276 278 280 281
233 233 233 235 235 234 234 235 237 238 239 240 241 241 243 246 248 250 251 253 254 255 256 256 257 257 259 262 263 264 265 268 269 269 271 272 273 273 274 275 277 280 282 283
233 233 235 235 236 236 235 236 237 237 238 239 240 242 244 246 248 250 252 252 253 254 255 257 258 259 261 263 265 266 268 270 271 271 272 274 275 275 275 276 278 280 282 284
234 234 235 236 238 237 236 236 236 237 238 238 240 243 244 246 248 250 252 253 255 255 256 257 259 261 264 266 267 267 268 270 272 273 274 275 275 275 276 278 280 282 283 285
235 235 237 238 238 237 237 236 236 237 238 239 240 242 245 246 248 250 252 254 255 256 256 258 260 262 264 266 266 267 268 269 270 272 273 274 275 276 277 279 280 282 284 285
Height
5799 5801 5802 5804 5805 5806 5807 5809 5810 5812 5812 5814 5814 5814 5815 5816 5817 5818 5820 5821 5823 5824 5825 5826 5828 5829 5831 5832 5834 5836 5838 5839 5841 5843 5844 5845 5846 5847 5848 5850 5851 5852 5853 5853
5795 5796 5797 5799 5800 5802 5803 5804 5806 5807 5809 5810 5810 5811 5811 5812 5813 5815 5816 5817 5819 5820 5821 5822 5824 5825 5827 5828 5830 5832 5834 5836 5837 5839 5840 5841 5843 5844 5845 5846 5847 5848 5849 5850
5790 5792 5792 5794 5797 5798 5799 5800 5802 5803 5806 5806 5806 5807 5808 5809 5810 5811 5813 5814 5815 5816 5817 5819 5820 5822 5823 5825 5826 5828 5830 5831 5833 5834 5836 5837 5839 5840 5841 5842 5843 5845 5845 5845
5785 5787 5788 5793 5793 5794 5795 5796 5797 5799 5801 5801 5803 5803 5804 5805 5806 5808 5809 5810 5811 5812 5814 5815 5817 5818 5819 5820 5822 5824 5825 5827 5829 5830 5832 5833 5835 5836 5837 5838 5839 5840 5841 5841
5780 5782 5784 5787 5788 5789 5790 5792 5794 5795 5796 5797 5798 5799 5800 5801 5802 5804 5805 5806 5807 5808 5810 5811 5812 5814 5815 5816 5818 5819 5821 5823 5824 5826 5827 5829 5830 5832 5833 5834 5835 5836 5837 5837
5776 5777 5779 5784 5785 5785 5787 5788 5790 5791 5792 5793 5794 5796 5798 5798 5799 5800 5801 5802 5803 5804 5806 5807 5808 5809 5810 5811 5813 5814 5816 5818 5820 5821 5823 5824 5826 5827 5829 5830 5831 5832 5832 5833
5771 5772 5775 5778 5779 5781 5784 5786 5786 5787 5788 5789 5790 5793 5794 5795 5796 5797 5797 5798 5800 5801 5802 5803 5804 5804 5806 5807 5808 5810 5812 5814 5815 5817 5818 5819 5821 5822 5824 5825 5826 5827 5827 5828
5766 5768 5773 5773 5775 5777 5780 5781 5782 5783 5784 5786 5787 5788 5790 5791 5792 5793 5793 5794 5796 5797 5798 5798 5799 5800 5801 5803 5804 5806 5808 5809 5811 5812 5814 5815 5816 5818 5819 5820 5821 5822 5823 5823
5762 5766 5767 5768 5770 5772 5774 5776 5777 5779 5780 5782 5783 5784 5786 5787 5788 5789 5790 5791 5792 5793 5794 5794 5795 5796 5797 5798 5800 5802 5804 5805 5807 5808 5809 5810 5812 5813 5815 5816 5817 5817 5818 5818
5756 5759 5761 5763 5765 5767 5769 5771 5773 5774 5776 5777 5779 5780 5782 5783 5784 5785 5786 5787 5788 5789 5790 5790 5791 5792 5793 5795 5796 5798 5799 5801 5802 5803 5805 5806 5807 5808 5810 5811 5811 5812 5812 5813
5749 5753 5755 5757 5759 5762 5764 5766 5768 5770 5771 5773 5774 5776 5777 5779 5780 5781 5782 5783 5784 5785 5786 5787 5787 5788 5789 5790 5792 5793 5795 5796 5797 5799 5800 5801 5802 5803 5804 5805 5806 5807 5807 5807
5744 5747 5749 5752 5754 5757 5759 5761 5763 5765 5767 5768 5770 5771 5773 5774 5775 5777 5778 5779 5780 5781 5781 5782 5783 5784 5785 5786 5787 5789 5790 5791 5792 5794 5795 5795 5797 5798 5799 5800 5800 5801 5801 5802
5737 5740 5743 5746 5748 5751 5753 5756 5758 5760 5762 5764 5765 5767 5768 5769 5771 5772 5773 5774 5775 5776 5777 5778 5778 5779 5780 5781 5782 5783 5785 5786 5787 5788 5789 5790 5791 5792 5793 5794 5794 5795 5795 5795
5730 5733 5736 5740 5742 5745 5747 5750 5752 5754 5756 5758 5760 5761 5763 5764 5766 5767 5768 5769 5770 5771 5772 5773 5774 5775 5776 5777 5778 5779 5780 5781 5782 5783 5783 5784 5785 5786 5787 5788 5788 5788 5789 5789
5723 5726 5730 5733 5736 5739 5741 5744 5746 5748 5750 5752 5754 5756 5758 5759 5760 5761 5763 5763 5764 5765 5766 5767 5769 5770 5771 5772 5773 5773 5774 5775 5776 5777 5777 5778 5779 5780 5780 5781 5781 5782 5782 5782
5715 5719 5722 5726 5729 5732 5734 5737 5739 5741 5744 5746 5748 5750 5751 5753 5754 5755 5757 5758 5759 5760 5761 5762 5763 5764 5765 5766 5767 5768 5769 5770 5770 5771 5771 5772 5773 5773 5774 5774 5775 5775 5775 5775
5707 5710 5714 5718 5721 5724 5727 5729 5732 5734 5737 5739 5741 5743 5745 5746 5748 5749 5751 5752 5753 5754 5755 5756 5757 5758 5759 5760 5761 5762 5763 5763 5764 5765 5765 5766 5766 5767 5767 5768 5768 5768 5768 5767
5699 5702 5706 5710 5713 5716 5719 5721 5724 5726 5729 5731 5734 5736 5738 5740 5741 5743 5744 5746 5747 5748 5749 5750 5751 5752 5753 5754 5755 5756 5756 5757 5758 5758 5759 5759 5760 5760 5760 5760 5760 5760 5760 5759
5690 5694 5698 5701 5704 5708 5710 5713 5716 5718 5721 5723 5726 5728 5731 5732 5734 5736 5737 5739 5740 5741 5742 5743 5744 5745 5746 5747 5748 5749 5750 5751 5751 5752 5752 5752 5752 5753 5753 5753 5753 5752 5752 5751
5682 5686 5689 5692 5696 5699 5702 5704 5707 5710 5713 5715 5718 5721 5723 5725 5726 5728 5730 5732 5733 5734 5736 5736 5737 5738 5739 5741 5741 5742 5743 5744 5744 5745 5745 5745 5745 5745 5745 5745 5744 5744 5744 5743
5674 5677 5680 5684 5687 5690 5693 5696 5699 5702 5705 5708 5710 5713 5715 5717 5719 5721 5722 5724 5726 5727 5728 5729 5730 5731 5732 5733 5734 5735 5736 5736 5737 5737 5737 5737 5737 5737 5737 5737 5736 5736 5735 5735
5666 5669 5672 5675 5678 5681 5685 5688 5691 5694 5697 5700 5703 5705 5708 5710 5712 5713 5715 5717 5718 5720 5721 5722 5723 5724 5725 5726 5727 5728 5728 5729 5729 5729 5729 5729 5729 5729 5729 5729 5728 5727 5727 5726
5657 5661 5664 5667 5670 5673 5676 5679 5683 5686 5689 5692 5694 5697 5699 5702 5704 5706 5707 5709 5710 5712 5713 5715 5716 5717 5718 5718 5719 5720 5720 5721 5721 5721 5721 5721 5721 5721 5721 5720 5720 5719 5718 5717
5649 5653 5656 5659 5662 5665 5668 5671 5674 5677 5680 5683 5686 5689 5691 5694 5696 5697 5699 5701 5702 5704 5705 5706 5707 5709 5710 5710 5711 5712 5712 5712 5712 5712 5713 5712 5712 5712 5712 5711 5711 5710 5709 5707
5641 5645 5648 5651 5654 5657 5660 5663 5666 5669 5672 5675 5677 5680 5683 5685 5687 5689 5691 5692 5694 5695 5697 5698 5699 5700 5702 5702 5703 5703 5704 5704 5704 5704 5704 5704 5704 5703 5703 5702 5701 5700 5699 5698
5633 5637 5640 5643 5646 5649 5652 5655 5658 5661 5664 5667 5669 5672 5674 5676 5678 5681 5682 5684 5685 5687 5688 5690 5691 5692 5693 5694 5694 5694 5695 5695 5695 5695 5695 5695 5694 5694 5693 5693 5692 5691 5689 5688
5625 5629 5632 5635 5638 5641 5644 5647 5650 5653 5656 5659 5661 5663 5666 5668 5670 5672 5674 5675 5677 5678 5679 5681 5682 5683 5684 5684 5685 5685 5685 5686 5686 5686 5685 5685 5685 5684 5683 5683 5681 5680 5679 5677